Location: Unspecified
(0.0000°N, 0.0000°E)
Time: 12:22:14
(UTC+00:00)

CBERS-1 - Pass Details

Date: 15 June 2023
Orbit: 767 x 776 km, 98.8° (Epoch: 21 September)

Event Time Altitude Azimuth Distance (km) Brightness Sun altitude
Rises 02:54:48 0° 22° (NNE) 3,240 7.8 -41.7°
Reaches altitude 10° 02:57:10 10° 28° (NNE) 2,316 7.0 -41.2°
Enters shadow 02:58:04 15° 31° (NNE) 1,980 6.6 -41.0°
